星链-5607 (STARLINK-5607 )

导读 | 豆包AI

STARLINK-5607是美国SpaceX公司星链(Starlink)星座的卫星,属于全球最大低轨卫星互联网项目的组成部分,于2023年1月31日发射升空。星链旨在为全球提供高速低延迟卫星互联网服务,可覆盖偏远区域,也支持城市地区网络服务。作为星链组网卫星,该卫星运行于近地轨道,助力SpaceX构建数万颗规模的卫星网络,提供宽带接入服务。

基本信息
目录编号:
55404
目录名称:
STARLINK-5607
国际标识:
2023-014P
轨道中心:
EARTH
卫星名称:
星链-5607
卫星全名:
星链-5607 (STARLINK-5607 )
卫星状态:
在轨 (已飞行1139 天)
发射日期:
2023-01-31 UTC
国别 :
美国 (US)
星等 :
--
轨道信息
数据来源 国际轨道数据
星历时间: 2026-03-15T13:42:25+0800
9小时前
查看轨道信息
半长轴: 6950.192km
偏心率: 0.0003734
轨道倾角: 70.000°
近地点辐角 270.483°
升交点赤经 50.583°
平近点角 89.590°
近地点: 569.459km
远地点: 574.651km
周期: 96.107分钟
每日圈数: 14.983304
详细信息
固有亮度:
5
最大亮度:
2.5
卫星平台:
Starlink v1.5
覆盖范围:
全球
运营商:
太空探索技术公司
运营商所在国:
美国
制造商(研发单位):
太空探索技术公司
制造商所在国:
美国
使用方式:
暂无
卫星简介
星链(Starlink)计划是由太空探索技术公司(SpaceX)提出的一个巨型低轨卫星互联网星座项目,计划在2019年至2024年间在太空搭建由约1.2万颗卫星组成的“星链”网络,其中1584颗将部署在地球上空550千米处的近地轨道,并从2020年开始工作。该卫星仍在工作。
2D轨道图
3D轨道图
轨道高度分析图
轨道倾角分析图
轨道综合分析图
查看轨道综合分析图